This demonstration page uses our WeatherBlox Daily Observations layout. Learn more.

Left ArrowRight Arrow

Hourly Observations for September 7, 2018

Temp ( °F °C ) Dew Point ( °F °C ) Humidity (%) Winds ( mph kmh ) Pressure ( in mb ) Visibility ( mi km ) Precip ( " mm )
12:53 am 00:53 Clear 71 21.7 68 20 90 90 NNE 5 7 30.17 1022 10 16 0.00 0.00
1:53 am 01:53 Clear 69 20.6 67 19.4 93 93 Calm 30.18 1022 10 16 0.00 0.00
2:25 am 02:25 Mostly Cloudy 70 21.1 68 20 93 93 Calm 30.18 1022 10 16 0.00 0.00
2:53 am 02:53 Partly Cloudy 71 21.7 69 20.6 94 94 Calm 30.18 1022 10 16 0.00 0.00
3:53 am 03:53 Mostly Clear 70 21.1 68 20 93 93 Calm 30.17 1022 7 11 0.00 0.00
4:53 am 04:53 Clear 70 21.1 68 20 93 93 Calm 30.16 1022 7 11 0.00 0.00
5:53 am 05:53 Clear 71 21.7 69 20.6 94 94 Calm 30.16 1021 7 11 0.00 0.00
6:40 am 06:40 Mostly Clear 71 21.7 70 21.1 96 96 Calm 30.15 1021 7 11 0.00 0.00
6:53 am 06:53 Mostly Clear 72 22.2 70 21.1 94 94 NE 3 6 30.16 1021 8 13 0.00 0.00
7:32 am 07:32 Mostly Cloudy with Mist and Fog 72 22.2 70 21.1 94 94 E 5 7 30.15 1021 6 10 0.00 0.00
7:53 am 07:53 Cloudy 73 22.8 71 21.7 94 94 ENE 6 9 30.16 1022 7 11 0.00 0.00
8:53 am 08:53 Cloudy 73 22.8 70 21.1 90 90 ENE 8 13 30.17 1022 7 11 0.00 0.00
9:53 am 09:53 Cloudy 73 22.8 70 21.1 90 90 ENE 7 11 30.17 1022 8 13 0.00 0.00
10:33 am 10:33 Cloudy 74 23.3 70 21.1 88 88 E 5 7 30.15 1021 10 16 0.00 0.00
10:53 am 10:53 Mostly Cloudy 75 23.9 71 21.7 88 88 E 6 9 30.17 1022 10 16 0.00 0.00
11:02 am 11:02 Mostly Cloudy 75 23.9 71 21.7 88 88 E 6 9 30.15 1021 10 16 0.00 0.00
11:53 am 11:53 Partly Cloudy 77 25 71 21.7 82 82 NNE 6 9 30.17 1022 10 16 0.00 0.00
12:53 pm 12:53 Cloudy 78 25.6 71 21.7 79 79 E 6 9 30.15 1021 10 16 0.00 0.00
1:53 pm 13:53 Cloudy 80 26.7 72 22.2 76 76 ENE 7 11 30.14 1021 10 16 0.00 0.00
2:53 pm 14:53 Cloudy 79 26.1 72 22.2 79 79 ENE 6 9 30.12 1020 10 16 0.00 0.00
3:53 pm 15:53 Mostly Cloudy 80 26.7 71 21.7 74 74 ENE 7 11 30.10 1019 10 16 0.00 0.00
4:53 pm 16:53 Mostly Cloudy 81 27.2 72 22.2 74 74 N 17 28 30.09 1019 10 16 0.00 0.00
5:09 pm 17:09 Mostly Cloudy 79 26.1 70 21.1 74 74 N 9 15 30.06 1018 10 16 0.00 0.00
5:53 pm 17:53 Partly Cloudy 77 25 70 21.1 79 79 N 12 19 30.08 1019 10 16 0.00 0.00
6:53 pm 18:53 Mostly Cloudy 75 23.9 69 20.6 82 82 NNE 9 15 30.07 1018 10 16 0.00 0.00
7:53 pm 19:53 Cloudy with Light Rain 74 23.3 69 20.6 85 85 E 3 6 30.10 1019 8 13 0.00 0.03
8:12 pm 20:12 Cloudy with Heavy Rain 72 22.2 70 21.1 94 94 Calm 30.09 1019 2 3 0.11 2.79
8:15 pm 20:15 Cloudy with Heavy Rain 72 22.2 70 21.1 94 94 Calm 30.09 1019 2 2 0.14 3.56
8:28 pm 20:28 Cloudy with Heavy Rain 71 21.7 70 21.1 96 96 Calm 30.09 1019 2 2 0.29 7.37
8:47 pm 20:47 Cloudy with Rain 72 22 70 21 94 94 NE 13 20 30.09 1019 3 4 0.50 12.70
8:53 pm 20:53 Cloudy with Light Rain 71 21.7 70 21.1 96 96 NE 17 28 30.09 1019 5 8 0.51 12.95
9:00 pm 21:00 Cloudy with Light Rain 71 21.7 70 21.1 96 96 NE 12 19 30.09 1019 10 16 0.00 0.03
9:08 pm 21:08 Mostly Cloudy with Light Rain 72 22.2 70 21.1 94 94 NE 8 13 30.09 1019 10 16 0.00 0.03
9:53 pm 21:53 Partly Cloudy with Light Rain 72 22.2 70 21.1 94 94 NNE 5 7 30.11 1020 10 16 0.01 0.25
10:07 pm 22:07 Mostly Cloudy 71 21.7 70 21.1 96 96 VRB 3 6 30.09 1019 10 16 0.00 0.03
10:53 pm 22:53 Cloudy 71 21.7 69 20.6 94 94 NNE 8 13 30.11 1020 10 16 0.00 0.03
11:18 pm 23:18 Cloudy 71 21.7 69 20.6 94 94 NE 8 13 30.09 1019 10 16 0.00 0.00
11:53 pm 23:53 Cloudy 70 21.1 68 20 93 93 NE 5 7 30.09 1019 9 14 0.00 0.00

Powered by AerisWeather